SEKVV RJCH-RJNH

Flight info

Callsign SEKVV
Flight time N/A
Altitude 28000
Route 404456N1394629E 393327N1394337E 383150N1391848E 375725N1390626E 370936N1383636E 361023N1375524E DCT 351001N1374541E
Aircraft TBM8/L-SDFGRWY/S

Departure

Time 2026-04-18 18:59
Airport Hakodate Airport (RJCH)

Arrival

Time N/A
Airport JASDF Hamamatsu Air Base (RJNH)
Time Latitude Longitude Altitude Speed Heading
2026-04-18 18:49 41.77379 140.81944 119 ft 0 kts 108°
2026-04-18 18:55 41.77380 140.81944 119 ft 0 kts 108°
2026-04-18 18:55 41.77379 140.81948 117 ft 4 kts 106°
2026-04-18 18:55 41.77361 140.81959 118 ft 2 kts 202°
2026-04-18 18:56 41.77343 140.81950 120 ft 1 kts 202°
2026-04-18 18:56 41.77319 140.81936 119 ft 10 kts 221°
2026-04-18 18:56 41.77258 140.81922 118 ft 10 kts 114°
2026-04-18 18:56 41.77233 140.82016 120 ft 12 kts 113°
2026-04-18 18:57 41.77207 140.82139 123 ft 11 kts 110°
2026-04-18 18:57 41.77188 140.82214 123 ft 10 kts 108°
2026-04-18 18:57 41.77153 140.82358 127 ft 21 kts 108°
2026-04-18 18:57 41.77111 140.82531 130 ft 16 kts 107°
2026-04-18 18:58 41.77078 140.82666 132 ft 17 kts 107°
2026-04-18 18:58 41.77033 140.82785 134 ft 13 kts 146°
2026-04-18 18:58 41.76941 140.82774 135 ft 15 kts 204°
2026-04-18 18:58 41.76893 140.82706 135 ft 10 kts 273°
2026-04-18 18:59 41.76952 140.82466 132 ft 54 kts 288°
2026-04-18 18:59 41.77127 140.81757 199 ft 96 kts 289°
2026-04-18 18:59 41.77371 140.80833 446 ft 116 kts 291°
2026-04-18 18:59 41.77652 140.79813 946 ft 115 kts 293°
2026-04-18 19:00 41.77791 140.78797 1523 ft 113 kts 261°
2026-04-18 19:00 41.77363 140.77928 2077 ft 119 kts 222°
2026-04-18 19:00 41.76506 140.77596 2493 ft 139 kts 193°
2026-04-18 19:00 41.75508 140.77500 2857 ft 152 kts 194°
2026-04-18 19:01 41.74449 140.77440 3383 ft 154 kts 191°
2026-04-18 19:01 41.73367 140.77419 3895 ft 156 kts 192°
2026-04-18 19:01 41.72282 140.77378 4407 ft 154 kts 199°
2026-04-18 19:01 41.71284 140.77028 4922 ft 143 kts 220°
2026-04-18 19:02 41.70486 140.76289 5388 ft 140 kts 231°
2026-04-18 19:02 41.69702 140.75489 5830 ft 143 kts 231°
2026-04-18 19:02 41.68912 140.74664 6297 ft 145 kts 232°
2026-04-18 19:02 41.68114 140.73825 6746 ft 146 kts 232°
2026-04-18 19:03 41.67323 140.72994 7201 ft 147 kts 233°
2026-04-18 19:03 41.66520 140.72148 7662 ft 147 kts 233°
2026-04-18 19:03 41.65712 140.71297 8129 ft 148 kts 233°
2026-04-18 19:04 41.64085 140.69586 9056 ft 149 kts 234°
2026-04-18 19:04 41.63266 140.68726 9512 ft 150 kts 234°
2026-04-18 19:04 41.62444 140.67861 9962 ft 151 kts 234°
2026-04-18 19:04 41.61616 140.66993 10367 ft 151 kts 234°
2026-04-18 19:05 41.60787 140.66122 10767 ft 152 kts 234°
2026-04-18 19:05 41.59124 140.64376 11562 ft 154 kts 234°
2026-04-18 19:05 41.58282 140.63493 11974 ft 154 kts 234°
2026-04-18 19:06 41.57437 140.62607 12381 ft 155 kts 234°
2026-04-18 19:06 41.55731 140.60818 13184 ft 156 kts 234°
2026-04-18 19:06 41.54871 140.59918 13584 ft 157 kts 234°
2026-04-18 19:07 41.54007 140.59013 13965 ft 158 kts 234°
2026-04-18 19:07 41.53138 140.58103 14316 ft 159 kts 234°
2026-04-18 19:07 41.52264 140.57189 14668 ft 160 kts 234°
2026-04-18 19:07 41.51389 140.56274 15025 ft 160 kts 234°
2026-04-18 19:08 41.50522 140.55367 15376 ft 161 kts 234°
2026-04-18 19:08 41.49640 140.54445 15725 ft 161 kts 234°
2026-04-18 19:08 41.48753 140.53521 16085 ft 162 kts 234°
2026-04-18 19:08 41.47833 140.52540 16227 ft 176 kts 234°
2026-04-18 19:09 41.46866 140.51530 16584 ft 177 kts 233°
2026-04-18 19:09 41.45893 140.50526 16938 ft 177 kts 233°
2026-04-18 19:09 41.44920 140.49513 17294 ft 178 kts 233°
2026-04-18 19:09 41.43944 140.48495 17641 ft 179 kts 233°
2026-04-18 19:10 41.42962 140.47472 17996 ft 179 kts 233°
2026-04-18 19:10 41.41980 140.46447 18339 ft 180 kts 233°
2026-04-18 19:10 41.40993 140.45417 18642 ft 180 kts 233°
2026-04-18 19:10 41.40013 140.44398 18940 ft 181 kts 233°
2026-04-18 19:11 41.39022 140.43367 19248 ft 181 kts 233°
2026-04-18 19:11 41.38030 140.42334 19545 ft 181 kts 233°
2026-04-18 19:11 41.37036 140.41300 19842 ft 182 kts 233°
2026-04-18 19:11 41.36038 140.40263 20141 ft 182 kts 233°
2026-04-18 19:12 41.35040 140.39226 20444 ft 182 kts 233°
2026-04-18 19:12 41.34040 140.38186 20734 ft 183 kts 233°
2026-04-18 19:12 41.33036 140.37144 21034 ft 183 kts 233°
2026-04-18 19:12 41.32029 140.36098 21324 ft 184 kts 233°
2026-04-18 19:13 41.31022 140.35053 21618 ft 184 kts 233°
2026-04-18 19:13 41.30011 140.34004 21906 ft 185 kts 233°
2026-04-18 19:13 41.28996 140.32953 22200 ft 185 kts 233°
2026-04-18 19:13 41.27979 140.31898 22491 ft 185 kts 232°
2026-04-18 19:14 41.26958 140.30843 22775 ft 186 kts 232°
2026-04-18 19:14 41.25937 140.29784 23056 ft 186 kts 232°
2026-04-18 19:14 41.24912 140.28723 23326 ft 187 kts 232°
2026-04-18 19:14 41.23899 140.27674 23600 ft 187 kts 232°
2026-04-18 19:15 41.22866 140.26605 23830 ft 188 kts 232°
2026-04-18 19:15 41.21833 140.25537 24053 ft 188 kts 232°
2026-04-18 19:15 41.20797 140.24466 24278 ft 189 kts 232°
2026-04-18 19:15 41.19762 140.23388 24503 ft 189 kts 232°
2026-04-18 19:16 41.18731 140.22302 24720 ft 189 kts 233°
2026-04-18 19:16 41.17692 140.21216 24939 ft 192 kts 231°
2026-04-18 19:16 41.16427 140.20424 25152 ft 209 kts 214°
2026-04-18 19:16 41.15070 140.19767 25363 ft 204 kts 219°
2026-04-18 19:17 41.13899 140.18858 25569 ft 193 kts 231°
2026-04-18 19:17 41.12867 140.17751 25779 ft 190 kts 234°
2026-04-18 19:17 41.11846 140.16623 25987 ft 192 kts 233°
2026-04-18 19:17 41.10806 140.15509 26192 ft 193 kts 233°
2026-04-18 19:18 41.09758 140.14394 26401 ft 193 kts 233°
2026-04-18 19:18 41.08708 140.13275 26608 ft 193 kts 233°
2026-04-18 19:18 41.07660 140.12152 26814 ft 194 kts 233°
2026-04-18 19:18 41.06617 140.11021 27014 ft 194 kts 233°
2026-04-18 19:19 41.05579 140.09879 27213 ft 194 kts 234°
2026-04-18 19:19 41.04543 140.08723 27412 ft 194 kts 234°
2026-04-18 19:19 41.03862 140.07954 27545 ft 194 kts 234°
2026-04-18 19:19 41.02492 140.06384 27801 ft 195 kts 235°
2026-04-18 19:20 41.01817 140.05598 27932 ft 195 kts 235°
2026-04-18 19:20 41.00801 140.04401 28056 ft 198 kts 236°
2026-04-18 19:20 40.99434 140.02705 28060 ft 206 kts 239°
2026-04-18 19:20 40.98771 140.01755 28068 ft 211 kts 238°
2026-04-18 19:21 40.97660 140.00395 28075 ft 224 kts 232°
2026-04-18 19:21 40.96395 139.99119 28067 ft 233 kts 228°
2026-04-18 19:21 40.95084 139.97862 28074 ft 238 kts 229°
2026-04-18 19:21 40.93757 139.96523 28078 ft 241 kts 230°
2026-04-18 19:22 40.92420 139.95150 28076 ft 246 kts 229°
2026-04-18 19:22 40.91050 139.93759 28079 ft 250 kts 229°
2026-04-18 19:22 40.89653 139.92351 28078 ft 253 kts 229°
2026-04-18 19:22 40.88245 139.90929 28076 ft 256 kts 229°
2026-04-18 19:23 40.86843 139.89513 28081 ft 258 kts 228°
2026-04-18 19:23 40.85411 139.88067 28082 ft 260 kts 228°
2026-04-18 19:23 40.83963 139.86606 28081 ft 262 kts 228°
2026-04-18 19:23 40.82512 139.85144 28077 ft 264 kts 228°
2026-04-18 19:24 40.81051 139.83672 28081 ft 265 kts 228°
2026-04-18 19:24 40.79581 139.82191 28080 ft 266 kts 228°
2026-04-18 19:24 40.78107 139.80707 28084 ft 267 kts 228°
2026-04-18 19:24 40.76629 139.79220 28082 ft 268 kts 228°
2026-04-18 19:25 40.74983 139.77951 28081 ft 285 kts 213°
2026-04-18 19:25 40.72992 139.77372 28078 ft 304 kts 195°
2026-04-18 19:25 40.68724 139.77228 28076 ft 307 kts 194°
2026-04-18 19:26 40.64475 139.77042 28076 ft 307 kts 194°
2026-04-18 19:26 40.60187 139.76874 28075 ft 308 kts 194°
2026-04-18 19:27 40.55903 139.76697 28074 ft 308 kts 194°
2026-04-18 19:27 40.51645 139.76525 28076 ft 308 kts 194°
2026-04-18 19:28 40.47367 139.76353 28081 ft 307 kts 195°
2026-04-18 19:28 40.43090 139.76180 28081 ft 307 kts 195°
2026-04-18 19:29 40.38816 139.76007 28077 ft 307 kts 195°
2026-04-18 19:29 40.34550 139.75834 28081 ft 306 kts 195°
2026-04-18 19:30 40.30312 139.75663 28079 ft 306 kts 196°
2026-04-18 19:30 40.26054 139.75491 28078 ft 306 kts 196°
2026-04-18 19:31 40.21826 139.75322 28080 ft 305 kts 197°
2026-04-18 19:31 40.17583 139.75151 28082 ft 305 kts 197°
2026-04-18 19:32 40.13346 139.74982 28082 ft 304 kts 197°
2026-04-18 19:32 40.09107 139.74812 28080 ft 304 kts 197°
2026-04-18 19:33 40.04880 139.74642 28085 ft 304 kts 197°
2026-04-18 19:33 40.00657 139.74473 28091 ft 303 kts 197°
2026-04-18 19:34 39.96459 139.74306 28081 ft 303 kts 197°
2026-04-18 19:34 39.92243 139.74137 28086 ft 303 kts 197°
2026-04-18 19:35 39.88010 139.73967 28083 ft 306 kts 197°
2026-04-18 19:35 39.83753 139.73799 28083 ft 305 kts 197°
2026-04-18 19:36 39.79517 139.73632 28084 ft 303 kts 197°
2026-04-18 19:36 39.75328 139.73465 28084 ft 302 kts 197°
2026-04-18 19:37 39.71117 139.73298 28085 ft 302 kts 197°
2026-04-18 19:37 39.66946 139.73133 28085 ft 301 kts 196°
2026-04-18 19:38 39.62759 139.72967 28087 ft 301 kts 196°
2026-04-18 19:38 39.58573 139.72802 28087 ft 301 kts 196°
2026-04-18 19:39 39.56488 139.72712 28086 ft 298 kts 198°
2026-04-18 19:39 39.54532 139.72206 28091 ft 279 kts 212°
2026-04-18 19:39 39.52682 139.71418 28089 ft 279 kts 212°
2026-04-18 19:39 39.50819 139.70670 28088 ft 280 kts 211°
2026-04-18 19:40 39.48955 139.69922 28090 ft 280 kts 211°
2026-04-18 19:40 39.47099 139.69162 28089 ft 279 kts 211°
2026-04-18 19:40 39.45242 139.68400 28089 ft 280 kts 211°
2026-04-18 19:40 39.43408 139.67652 28093 ft 280 kts 211°
2026-04-18 19:41 39.41552 139.66898 28087 ft 280 kts 211°
2026-04-18 19:41 39.39693 139.66142 28090 ft 280 kts 211°
2026-04-18 19:41 39.37836 139.65385 28089 ft 280 kts 211°
2026-04-18 19:41 39.35978 139.64630 28096 ft 280 kts 211°
2026-04-18 19:42 39.34118 139.63874 28094 ft 280 kts 211°
2026-04-18 19:42 39.32277 139.63127 28095 ft 280 kts 211°
2026-04-18 19:42 39.30419 139.62372 28093 ft 280 kts 211°
2026-04-18 19:42 39.28561 139.61618 28100 ft 280 kts 210°
2026-04-18 19:43 39.26707 139.60867 28100 ft 280 kts 210°
2026-04-18 19:43 39.24848 139.60114 28098 ft 280 kts 210°
2026-04-18 19:43 39.22990 139.59360 28092 ft 280 kts 210°
2026-04-18 19:43 39.21132 139.58608 28096 ft 279 kts 210°
2026-04-18 19:44 39.19272 139.57856 28092 ft 279 kts 210°
2026-04-18 19:44 39.17437 139.57114 28096 ft 279 kts 210°
2026-04-18 19:44 39.13723 139.55613 28096 ft 279 kts 210°
2026-04-18 19:45 39.11865 139.54863 28097 ft 279 kts 210°
2026-04-18 19:45 39.10009 139.54114 28099 ft 279 kts 210°
2026-04-18 19:45 39.08153 139.53366 28097 ft 279 kts 210°
2026-04-18 19:45 39.06295 139.52618 28097 ft 279 kts 210°
2026-04-18 19:46 39.04460 139.51878 28096 ft 279 kts 210°
2026-04-18 19:46 39.02608 139.51133 28096 ft 279 kts 210°
2026-04-18 19:46 39.00755 139.50388 28095 ft 279 kts 210°
2026-04-18 19:46 38.98900 139.49641 28096 ft 279 kts 210°
2026-04-18 19:47 38.97048 139.48896 28099 ft 278 kts 209°
2026-04-18 19:47 38.95200 139.48155 28099 ft 278 kts 209°
2026-04-18 19:47 38.93905 139.47634 28096 ft 278 kts 209°
2026-04-18 19:47 38.92053 139.46890 28099 ft 278 kts 209°
2026-04-18 19:48 38.90206 139.46150 28099 ft 278 kts 209°
2026-04-18 19:48 38.88356 139.45409 28100 ft 278 kts 209°
2026-04-18 19:48 38.86510 139.44669 28102 ft 278 kts 209°
2026-04-18 19:48 38.84658 139.43927 28101 ft 278 kts 209°
2026-04-18 19:49 38.82812 139.43188 28100 ft 278 kts 209°
2026-04-18 19:49 38.80959 139.42447 28098 ft 278 kts 209°
2026-04-18 19:49 38.79110 139.41708 28098 ft 278 kts 209°
2026-04-18 19:49 38.77284 139.40978 28102 ft 278 kts 209°
2026-04-18 19:50 38.75435 139.40240 28097 ft 278 kts 209°
2026-04-18 19:50 38.73580 139.39499 28100 ft 279 kts 208°
2026-04-18 19:50 38.71730 139.38761 28103 ft 279 kts 208°
2026-04-18 19:50 38.69878 139.38022 28100 ft 279 kts 208°
2026-04-18 19:51 38.68025 139.37283 28103 ft 279 kts 208°
2026-04-18 19:51 38.66170 139.36545 28102 ft 279 kts 208°
2026-04-18 19:51 38.64317 139.35807 28101 ft 279 kts 208°
2026-04-18 19:51 38.62459 139.35068 28103 ft 279 kts 208°
2026-04-18 19:52 38.60599 139.34328 28096 ft 279 kts 208°
2026-04-18 19:52 38.58742 139.33590 28101 ft 279 kts 208°
2026-04-18 19:52 38.56904 139.32859 28102 ft 279 kts 208°
2026-04-18 19:52 38.55042 139.32120 28103 ft 279 kts 208°
2026-04-18 19:53 38.53188 139.31385 28101 ft 280 kts 208°
2026-04-18 19:53 38.51302 139.30723 28099 ft 281 kts 207°
2026-04-18 19:53 38.47549 139.29333 28099 ft 281 kts 207°
2026-04-18 19:54 38.45667 139.28653 28098 ft 281 kts 207°
2026-04-18 19:54 38.43785 139.27979 28102 ft 281 kts 207°
2026-04-18 19:54 38.41908 139.27301 28101 ft 280 kts 207°
2026-04-18 19:54 38.40031 139.26621 28103 ft 280 kts 207°
2026-04-18 19:55 38.38176 139.25951 28106 ft 280 kts 207°
2026-04-18 19:55 38.36298 139.25275 28098 ft 280 kts 206°
2026-04-18 19:55 38.34421 139.24599 28098 ft 280 kts 206°
2026-04-18 19:55 38.32545 139.23923 28099 ft 280 kts 206°
2026-04-18 19:56 38.30665 139.23245 28098 ft 280 kts 206°
2026-04-18 19:56 38.28784 139.22569 28098 ft 280 kts 206°
2026-04-18 19:56 38.26908 139.21894 28097 ft 280 kts 206°
2026-04-18 19:56 38.25053 139.21227 28097 ft 280 kts 206°
2026-04-18 19:57 38.23176 139.20552 28097 ft 280 kts 206°
2026-04-18 19:57 38.21292 139.19875 28097 ft 280 kts 206°
2026-04-18 19:57 38.19413 139.19203 28100 ft 280 kts 206°
2026-04-18 19:57 38.17536 139.18528 28096 ft 280 kts 206°
2026-04-18 19:58 38.15664 139.17857 28098 ft 280 kts 206°
2026-04-18 19:58 38.13813 139.17194 28100 ft 280 kts 205°
2026-04-18 19:58 38.11934 139.16520 28098 ft 280 kts 205°
2026-04-18 19:58 38.10059 139.15849 28090 ft 280 kts 205°
2026-04-18 19:59 38.08185 139.15179 28094 ft 280 kts 205°
2026-04-18 19:59 38.06309 139.14508 28093 ft 280 kts 205°
2026-04-18 19:59 38.04431 139.13837 28092 ft 280 kts 205°
2026-04-18 19:59 38.02557 139.13168 28094 ft 280 kts 205°
2026-04-18 20:00 38.00682 139.12498 28095 ft 280 kts 205°
2026-04-18 20:00 37.98831 139.11837 28095 ft 280 kts 205°
2026-04-18 20:00 37.96954 139.11168 28093 ft 280 kts 205°
2026-04-18 20:00 37.95132 139.10384 28095 ft 272 kts 214°
2026-04-18 20:01 37.93454 139.09287 28096 ft 271 kts 214°
2026-04-18 20:01 37.91760 139.08225 28094 ft 272 kts 213°
2026-04-18 20:01 37.90055 139.07167 28096 ft 272 kts 214°
2026-04-18 20:01 37.88383 139.06113 28093 ft 272 kts 214°
2026-04-18 20:02 37.86692 139.05042 28095 ft 272 kts 214°
2026-04-18 20:02 37.84994 139.03974 28097 ft 272 kts 213°
2026-04-18 20:02 37.83301 139.02909 28095 ft 272 kts 213°
2026-04-18 20:02 37.81605 139.01842 28095 ft 272 kts 213°
2026-04-18 20:03 37.79904 139.00773 28095 ft 272 kts 213°
2026-04-18 20:03 37.78203 138.99704 28100 ft 273 kts 213°
2026-04-18 20:03 37.76501 138.98636 28101 ft 273 kts 213°
2026-04-18 20:03 37.74798 138.97567 28101 ft 273 kts 213°
2026-04-18 20:04 37.73110 138.96508 28097 ft 273 kts 213°
2026-04-18 20:04 37.71399 138.95436 28098 ft 274 kts 213°
2026-04-18 20:04 37.69690 138.94365 28098 ft 274 kts 213°
2026-04-18 20:04 37.67978 138.93293 28100 ft 274 kts 213°
2026-04-18 20:05 37.66270 138.92224 28099 ft 274 kts 213°
2026-04-18 20:05 37.64561 138.91154 28100 ft 274 kts 213°
2026-04-18 20:05 37.62850 138.90084 28099 ft 274 kts 213°
2026-04-18 20:05 37.61139 138.89015 28095 ft 275 kts 213°
2026-04-18 20:06 37.59451 138.87961 28094 ft 275 kts 213°
2026-04-18 20:06 37.57715 138.86876 28097 ft 275 kts 213°
2026-04-18 20:06 37.56023 138.85821 28095 ft 275 kts 213°
2026-04-18 20:06 37.54309 138.84752 28098 ft 275 kts 213°
2026-04-18 20:07 37.52595 138.83683 28100 ft 275 kts 213°
2026-04-18 20:07 37.50882 138.82616 28100 ft 275 kts 214°
2026-04-18 20:07 37.49162 138.81544 28099 ft 275 kts 214°
2026-04-18 20:07 37.47446 138.80476 28099 ft 275 kts 214°
2026-04-18 20:08 37.45732 138.79411 28099 ft 275 kts 214°
2026-04-18 20:08 37.44020 138.78345 28095 ft 275 kts 214°
2026-04-18 20:08 37.42325 138.77292 28096 ft 275 kts 214°
2026-04-18 20:08 37.40604 138.76224 28097 ft 275 kts 214°
2026-04-18 20:09 37.38888 138.75158 28096 ft 275 kts 214°
2026-04-18 20:09 37.37170 138.74092 28100 ft 275 kts 214°
2026-04-18 20:09 37.35454 138.73028 28101 ft 275 kts 214°
2026-04-18 20:09 37.33735 138.71962 28098 ft 275 kts 214°
2026-04-18 20:10 37.32035 138.70909 28101 ft 275 kts 214°
2026-04-18 20:10 37.30315 138.69844 28099 ft 276 kts 214°
2026-04-18 20:10 37.28594 138.68779 28099 ft 276 kts 214°
2026-04-18 20:10 37.27452 138.68071 28099 ft 276 kts 214°
2026-04-18 20:11 37.25728 138.67005 28104 ft 276 kts 213°
2026-04-18 20:11 37.24001 138.65938 28100 ft 277 kts 213°
2026-04-18 20:11 37.22275 138.64871 28099 ft 277 kts 213°
2026-04-18 20:11 37.20546 138.63803 28100 ft 277 kts 213°
2026-04-18 20:12 37.18813 138.62734 28101 ft 277 kts 213°
2026-04-18 20:12 37.17081 138.61665 28100 ft 277 kts 213°
2026-04-18 20:12 37.15369 138.60560 28101 ft 275 kts 217°
2026-04-18 20:12 37.13704 138.59362 28102 ft 276 kts 217°
2026-04-18 20:13 37.12028 138.58189 28105 ft 276 kts 216°
2026-04-18 20:13 37.10352 138.57018 28104 ft 276 kts 216°
2026-04-18 20:13 37.08672 138.55831 28104 ft 276 kts 217°
2026-04-18 20:13 37.07020 138.54663 28103 ft 276 kts 216°
2026-04-18 20:14 37.05349 138.53487 28106 ft 276 kts 216°
2026-04-18 20:14 37.03672 138.52309 28107 ft 276 kts 216°
2026-04-18 20:14 37.01998 138.51132 28106 ft 276 kts 216°
2026-04-18 20:14 37.00321 138.49953 28105 ft 276 kts 216°
2026-04-18 20:15 36.98642 138.48773 28104 ft 277 kts 216°
2026-04-18 20:15 36.96963 138.47593 28106 ft 276 kts 216°
2026-04-18 20:15 36.95288 138.46417 28103 ft 276 kts 216°
2026-04-18 20:15 36.93607 138.45238 28104 ft 277 kts 216°
2026-04-18 20:16 36.91925 138.44058 28107 ft 277 kts 216°
2026-04-18 20:16 36.90242 138.42878 28111 ft 278 kts 216°
2026-04-18 20:16 36.88577 138.41712 28108 ft 278 kts 216°
2026-04-18 20:16 36.86889 138.40531 28106 ft 278 kts 216°
2026-04-18 20:17 36.85179 138.39334 28105 ft 278 kts 216°
2026-04-18 20:17 36.83517 138.38171 28108 ft 278 kts 216°
2026-04-18 20:17 36.81829 138.36992 28109 ft 278 kts 216°
2026-04-18 20:17 36.80137 138.35809 28107 ft 279 kts 216°
2026-04-18 20:18 36.78446 138.34629 28111 ft 278 kts 216°
2026-04-18 20:18 36.76751 138.33446 28113 ft 278 kts 216°
2026-04-18 20:18 36.75062 138.32268 28114 ft 278 kts 216°
2026-04-18 20:18 36.73397 138.31106 28111 ft 278 kts 216°
2026-04-18 20:19 36.71707 138.29927 28112 ft 278 kts 216°
2026-04-18 20:19 36.70023 138.28755 28112 ft 277 kts 216°
2026-04-18 20:19 36.68339 138.27583 28113 ft 277 kts 216°
2026-04-18 20:19 36.66650 138.26408 28113 ft 277 kts 216°
2026-04-18 20:20 36.64970 138.25239 28112 ft 277 kts 216°
2026-04-18 20:20 36.63290 138.24070 28111 ft 277 kts 216°
2026-04-18 20:20 36.61610 138.22903 28111 ft 276 kts 216°
2026-04-18 20:20 36.59929 138.21737 28110 ft 276 kts 216°
2026-04-18 20:21 36.58270 138.20586 28114 ft 276 kts 216°
2026-04-18 20:21 36.56593 138.19422 28116 ft 276 kts 216°
2026-04-18 20:21 36.54917 138.18260 28114 ft 276 kts 216°
2026-04-18 20:21 36.53238 138.17096 28118 ft 276 kts 216°
2026-04-18 20:22 36.51557 138.15931 28121 ft 277 kts 216°
2026-04-18 20:22 36.49874 138.14765 28123 ft 277 kts 216°
2026-04-18 20:22 36.48190 138.13601 28127 ft 277 kts 216°
2026-04-18 20:22 36.46508 138.12438 28118 ft 277 kts 216°
2026-04-18 20:23 36.44824 138.11274 28115 ft 277 kts 216°
2026-04-18 20:23 36.43161 138.10124 28125 ft 277 kts 216°
2026-04-18 20:23 36.41478 138.08961 28116 ft 277 kts 216°
2026-04-18 20:23 36.39791 138.07797 28112 ft 277 kts 216°
2026-04-18 20:24 36.38109 138.06638 28113 ft 277 kts 216°
2026-04-18 20:24 36.36424 138.05475 28114 ft 277 kts 216°
2026-04-18 20:24 36.34738 138.04312 28113 ft 277 kts 216°
2026-04-18 20:24 36.33050 138.03150 28116 ft 277 kts 216°
2026-04-18 20:25 36.31364 138.01990 28113 ft 277 kts 216°
2026-04-18 20:25 36.29681 138.00832 28120 ft 276 kts 216°
2026-04-18 20:25 36.28001 137.99675 28114 ft 276 kts 216°
2026-04-18 20:25 36.26319 137.98518 28115 ft 276 kts 216°
2026-04-18 20:26 36.24640 137.97365 28113 ft 276 kts 216°
2026-04-18 20:26 36.22963 137.96214 28107 ft 275 kts 216°
2026-04-18 20:26 36.21288 137.95064 28111 ft 275 kts 216°
2026-04-18 20:26 36.19641 137.93934 28108 ft 274 kts 216°
2026-04-18 20:27 36.17965 137.92805 28112 ft 276 kts 213°
2026-04-18 20:27 36.16084 137.92099 27858 ft 295 kts 197°
2026-04-18 20:27 36.13994 137.91782 27356 ft 309 kts 195°
2026-04-18 20:27 36.11844 137.91447 26858 ft 311 kts 195°
2026-04-18 20:28 36.09693 137.91091 26366 ft 313 kts 195°
2026-04-18 20:28 36.07532 137.90734 25883 ft 314 kts 195°
2026-04-18 20:28 36.05360 137.90384 25407 ft 315 kts 194°
2026-04-18 20:28 36.03212 137.90037 24948 ft 315 kts 194°
2026-04-18 20:29 36.01031 137.89682 24485 ft 316 kts 194°
2026-04-18 20:29 35.98852 137.89329 24030 ft 317 kts 194°
2026-04-18 20:29 35.96656 137.88970 23561 ft 319 kts 194°
2026-04-18 20:29 35.94442 137.88610 23024 ft 322 kts 193°
2026-04-18 20:30 35.92206 137.88248 22489 ft 325 kts 193°
2026-04-18 20:30 35.89950 137.87880 21960 ft 328 kts 192°
2026-04-18 20:30 35.87680 137.87513 21454 ft 330 kts 192°
2026-04-18 20:30 35.85422 137.87152 20955 ft 333 kts 191°
2026-04-18 20:31 35.83084 137.86771 20453 ft 335 kts 191°
2026-04-18 20:31 35.80795 137.86395 19971 ft 337 kts 190°
2026-04-18 20:31 35.78461 137.86013 19492 ft 339 kts 190°
2026-04-18 20:31 35.76112 137.85636 19019 ft 342 kts 189°
2026-04-18 20:32 35.73743 137.85258 18554 ft 344 kts 189°
2026-04-18 20:32 35.71363 137.84872 18100 ft 344 kts 188°
2026-04-18 20:32 35.69003 137.84481 17682 ft 339 kts 189°
2026-04-18 20:32 35.66676 137.84105 17257 ft 335 kts 188°
2026-04-18 20:33 35.64379 137.83747 16847 ft 331 kts 188°
2026-04-18 20:33 35.62103 137.83387 16443 ft 328 kts 188°
2026-04-18 20:33 35.59845 137.83022 16103 ft 325 kts 188°
2026-04-18 20:33 35.57641 137.82680 16093 ft 315 kts 187°
2026-04-18 20:34 35.55493 137.82336 16084 ft 307 kts 188°
2026-04-18 20:34 35.53393 137.81989 16069 ft 302 kts 188°
2026-04-18 20:34 35.51323 137.81657 16075 ft 298 kts 187°
2026-04-18 20:34 35.49276 137.81334 16071 ft 295 kts 187°
2026-04-18 20:35 35.47932 137.81122 16063 ft 294 kts 187°
2026-04-18 20:35 35.45246 137.80689 16071 ft 293 kts 187°
2026-04-18 20:35 35.43226 137.80365 16064 ft 292 kts 187°
2026-04-18 20:35 35.42544 137.80256 16067 ft 292 kts 187°